Location: Newark
(48.0000°N, 67.0000°E)
Time: 17:52:42
(UTC+00:00)

Vanguard 2 - Pass Details

Date: 23 February 2020
Orbit: 552 x 2938 km, 32.9° (Epoch: 04 April)

Event Time Altitude Azimuth Distance (km) Brightness Sun altitude
Exits shadow 23:10:59 37° 194° (SSW) 2,919 10.1 -32.5°
Maximum altitude 23:13:33 41° 170° (S) 2,977 10.3 -32.1°
Drops below altitude 10° 23:27:57 10° 109° (ESE) 5,596 12.5 -29.9°
Sets 23:33:02 0° 104° (ESE) 6,747 13.2 -29.1°
